White Plains, CT

1:53 PM EST on December 15, 2019 (GMT -0500)
Westchester County

Weather History for KHPN - August, 2019

Change the Weather History Date:

Wednesday, August 28, 2019

  Actual Average Record
Temperature  
Mean Temperature 66 °F -  
Max Temperature 71 °F 76 °F 95 °F (1993)
Min Temperature 61 °F 60 °F 46 °F (1986)
Cooling Degree Days 1    
Growing Degree Days 16 (Base 50)    
Moisture  
Dew Point 65 °F    
Average Humidity 92    
Maximum Humidity 97    
Minimum Humidity 84    
Precipitation  
Precipitation 0.18 in - - ()
Sea Level Pressure  
Sea Level Pressure 29.90 in    
Wind  
Wind Speed 3 mph ()    
Max Wind Speed 8 mph    
Max Gust Speed -    
Visibility 5.9 miles    
Events Fog , Rain    
Averages and records for this station are not official NWS values.
T = Trace of Precipitation, MM = Missing Value Source: Averaged Metar Reports

Daily Weather History Graph

Daily Weather History Graph

Search for Another Location

Airport or City:

Astronomy

Aug. 28, 2019 Rise Set
Actual Time 6:17 AM EDT 7:34 PM EDT
Civil Twilight 5:48 AM EDT 8:02 PM EDT
Nautical Twilight 5:14 AM EDT 8:36 PM EDT
Astronomical Twilight 4:38 AM EDT 9:12 PM EDT
Moon 3:44 AM EDT (8/28) 6:45 PM EDT (8/28)
Length of Visible Light 14h 14m
Length of Day
13h 17m
Waning Crescent, 5% of the Moon is Illuminated
Aug 28
Waning Crescent
Aug 30
New
Sep 5
First Quarter
Sep 14
Full
Sep 21
Last Quarter

Hourly Weather History & Observations

Time (EDT) Temp. Dew Point Humidity Pressure Visibility Wind Dir Wind Speed Gust Speed Precip Events Conditions
12:56 AM 61.0 °F 59.0 °F 93% 30.01 in 10.0 mi Calm Calm - N/A   Partly Cloudy
1:56 AM 62.1 °F 60.1 °F 93% 29.99 in 10.0 mi Calm Calm - N/A   Partly Cloudy
2:56 AM 63.0 °F 61.0 °F 93% 29.97 in 10.0 mi Calm Calm - N/A   Mostly Cloudy
3:56 AM 64.0 °F 61.0 °F 90% 29.97 in 10.0 mi NW 4.6 mph - N/A   Overcast
4:56 AM 64.0 °F 62.1 °F 93% 29.96 in 10.0 mi NNW 5.8 mph - N/A   Overcast
5:13 AM 64.0 °F 62.1 °F 93% 29.95 in 10.0 mi NNE 4.6 mph - N/A   Mostly Cloudy
5:34 AM 64.0 °F 63.0 °F 96% 29.95 in 2.0 mi North 5.8 mph - N/A   Mist
5:56 AM 63.0 °F 62.1 °F 97% 29.95 in 0.2 mi NNW 5.8 mph - N/A Fog Fog
6:43 AM 64.0 °F 63.0 °F 96% 29.95 in 0.2 mi Calm Calm - N/A Fog Fog
6:56 AM 64.9 °F 63.0 °F 93% 29.95 in 1.5 mi North 3.5 mph - N/A   Mostly Cloudy
7:46 AM 66.9 °F 64.0 °F 90% 29.95 in 8.0 mi NE 3.5 mph - N/A   Mostly Cloudy
7:56 AM 68.0 °F 63.0 °F 84% 29.94 in 8.0 mi Calm Calm - N/A   Overcast
8:56 AM 68.0 °F 64.0 °F 87% 29.94 in 10.0 mi East 5.8 mph - N/A   Mostly Cloudy
9:56 AM 69.1 °F 64.9 °F 87% 29.94 in 10.0 mi East 6.9 mph - 0.00 in   Light Drizzle
10:16 AM 69.1 °F 64.9 °F 87% 29.94 in 1.2 mi East 8.1 mph - 0.02 in Rain Light Rain
10:56 AM 71.1 °F 66.9 °F 87% 29.91 in 3.0 mi East 8.1 mph - 0.02 in   Mostly Cloudy
11:56 AM 69.1 °F 66.0 °F 90% 29.91 in 3.0 mi East 8.1 mph - 0.00 in Rain Light Rain
12:56 PM 69.1 °F 66.9 °F 93% 29.88 in 2.0 mi ENE 5.8 mph - 0.01 in Rain Light Rain
1:06 PM 69.1 °F 66.9 °F 93% 29.88 in 0.8 mi ENE 5.8 mph - 0.11 in Rain Light Rain
1:56 PM 70.0 °F 68.0 °F 93% 29.85 in 3.0 mi NE 8.1 mph - 0.12 in   Mostly Cloudy
2:56 PM 71.1 °F 68.0 °F 90% 29.83 in 6.0 mi NE 3.5 mph - N/A   Mostly Cloudy
3:56 PM 70.0 °F 68.0 °F 93% 29.83 in 2.0 mi ESE 3.5 mph - N/A   Overcast
4:09 PM 70.0 °F 68.0 °F 93% 29.83 in 1.0 mi East 3.5 mph - N/A   Overcast
4:56 PM 70.0 °F 68.0 °F 93% 29.82 in 1.0 mi North 3.5 mph - 0.00 in Rain Light Rain
5:56 PM 70.0 °F 69.1 °F 97% 29.81 in 1.0 mi WNW 5.8 mph - 0.00 in   Overcast
6:56 PM 71.1 °F 69.1 °F 93% 29.81 in 10.0 mi NNW 6.9 mph - N/A   Overcast
7:56 PM 70.0 °F 68.0 °F 93% 29.80 in 8.0 mi Calm Calm - 0.02 in Rain Light Rain
8:56 PM 70.0 °F 69.1 °F 97% 29.81 in 10.0 mi WNW 3.5 mph - 0.01 in   Scattered Clouds
9:56 PM 70.0 °F 69.1 °F 97% 29.81 in 10.0 mi NW 3.5 mph - 0.00 in   Mostly Cloudy
10:56 PM 69.1 °F 68.0 °F 96% 29.81 in 10.0 mi Calm Calm - 0.00 in   Scattered Clouds
11:56 PM 69.1 °F 68.0 °F 96% 29.82 in 10.0 mi Calm Calm - N/A   Clear